Simultaneous Nadir Overpasses (SNOs) Predictions

Prediction of SNOs between NOAA-20 and METOP-B Satellite Orbit:

Table of predicted SNOs for the next 14.0 days since TLE Epoch: 12/28/2018
Index Date (NOAA-20) Time (NOAA-20) Lat,Lon (NOAA-20) SZA (NOAA-20 ) Date (METOP-B) Time (METOP-B) Lat,Lon (METOP-B) SZA (METOP-B ) Distance(km) Time Diff (sec)
1 01/07/2019 00:06:22 73.52, 168.48 96.16 01/07/2019 00:07:28 73.50, 171.31 96.00 89.31 66
2 01/07/2019 00:57:05 -73.46, -24.06 83.92 01/07/2019 00:58:12 -73.41, -21.57 84.09 79.23 67
3 01/07/2019 01:47:46 73.22, 143.78 95.82 01/07/2019 01:48:56 73.18, 145.25 95.70 47.59 70
4 01/07/2019 02:38:29 -73.16, -48.77 84.25 01/07/2019 02:39:40 -73.09, -47.62 84.39 38.06 71
5 01/07/2019 03:29:10 72.92, 119.05 95.49 01/07/2019 03:30:24 72.86, 119.22 95.40 8.65 74
6 01/07/2019 04:19:53 -72.86, -73.50 84.59 01/07/2019 04:21:06 -72.87, -73.43 84.59 3.09 73
7 01/07/2019 05:10:38 72.82, 93.89 95.37 01/07/2019 05:11:46 72.84, 93.84 95.38 2.71 68
8 01/07/2019 06:01:23 -72.86, -98.88 84.59 01/07/2019 06:02:28 -72.86, -98.80 84.62 2.72 65
9 01/07/2019 06:52:08 72.82, 68.51 95.36 01/07/2019 06:53:08 72.82, 68.46 95.35 1.42 60
10 01/07/2019 07:42:52 -72.81,-124.16 84.66 01/07/2019 07:43:50 -72.84,-124.18 84.64 2.89 58
11 01/07/2019 08:33:38 72.83, 43.13 95.36 01/07/2019 08:34:30 72.81, 43.09 95.33 2.67 52
12 01/07/2019 09:24:22 -72.82,-149.54 84.66 01/07/2019 09:25:12 -72.82,-149.56 84.67 0.88 50
13 01/07/2019 10:15:08 72.83, 17.75 95.35 01/07/2019 10:15:51 72.84, 17.81 95.35 2.43 43
14 01/07/2019 11:05:52 -72.82,-174.92 84.67 01/07/2019 11:06:34 -72.80,-174.94 84.69 1.83 42
15 01/07/2019 11:56:38 72.83, -7.63 95.35 01/07/2019 11:57:13 72.82, -7.56 95.33 2.55 35
16 01/07/2019 12:47:22 -72.82, 159.70 84.67 01/07/2019 12:47:55 -72.84, 159.79 84.67 3.34 33
17 01/07/2019 13:38:07 72.78, -32.91 95.29 01/07/2019 13:38:35 72.80, -32.94 95.30 2.44 28
18 01/07/2019 14:28:52 -72.82, 134.33 84.68 01/07/2019 14:29:17 -72.82, 134.42 84.69 3.02 25
19 01/07/2019 15:19:37 72.79, -58.28 95.28 01/07/2019 15:19:57 72.78, -58.32 95.28 1.14 20
20 01/07/2019 16:10:21 -72.77, 109.05 84.74 01/07/2019 16:10:39 -72.80, 109.04 84.72 2.79 18
21 01/07/2019 17:01:07 72.79, -83.66 95.27 01/07/2019 17:01:19 72.77, -83.70 95.25 2.67 12
22 01/07/2019 17:51:51 -72.78, 83.67 84.75 01/07/2019 17:52:01 -72.78, 83.66 84.74 0.63 10
23 01/07/2019 18:42:37 72.79,-109.04 95.27 01/07/2019 18:42:40 72.80,-108.97 95.27 2.64 3
24 01/07/2019 19:33:21 -72.78, 58.29 84.75 01/07/2019 19:33:23 -72.76, 58.28 84.77 1.77 2
25 01/07/2019 20:24:07 72.79,-134.42 95.26 01/07/2019 20:24:02 72.78,-134.35 95.25 2.88 5
26 01/07/2019 21:14:51 -72.78, 32.91 84.76 01/07/2019 21:14:44 -72.80, 33.01 84.75 3.61 7
27 01/07/2019 22:05:36 72.74,-159.70 95.20 01/07/2019 22:05:24 72.76,-159.72 95.22 2.17 12
28 01/07/2019 22:56:21 -72.78, 7.53 84.77 01/07/2019 22:56:06 -72.78, 7.63 84.77 3.36 15
29 01/07/2019 23:47:06 72.75, 174.92 95.19 01/07/2019 23:46:46 72.74, 174.90 95.20 0.87 20
30 01/08/2019 00:37:50 -72.74, -17.74 84.83 01/08/2019 00:37:28 -72.76, -17.74 84.80 2.73 22
31 01/08/2019 01:28:36 72.75, 149.54 95.19 01/08/2019 01:28:08 72.73, 149.52 95.17 2.70 28
32 01/08/2019 02:19:20 -72.74, -43.12 84.83 01/08/2019 02:18:50 -72.74, -43.12 84.82 0.47 30
33 01/08/2019 03:10:06 72.75, 124.16 95.18 01/08/2019 03:09:29 72.76, 124.25 95.19 2.89 37
34 01/08/2019 04:00:50 -72.74, -68.50 84.84 01/08/2019 04:00:12 -72.72, -68.50 84.85 1.79 38
35 01/08/2019 04:51:36 72.75, 98.78 95.17 01/08/2019 04:50:51 72.74, 98.87 95.17 3.24 45
36 01/08/2019 05:42:19 -72.69, -93.77 84.90 01/08/2019 05:41:34 -72.71, -93.87 84.87 3.69 45
37 01/08/2019 06:33:04 72.71, 73.51 95.11 01/08/2019 06:32:12 72.72, 73.49 95.14 1.91 52
38 01/08/2019 07:23:48 -72.69,-119.15 84.91 01/08/2019 07:22:55 -72.69,-119.25 84.90 3.33 53
39 01/08/2019 08:14:34 72.71, 48.13 95.11 01/08/2019 08:13:34 72.70, 48.12 95.12 0.67 60
40 01/08/2019 09:05:18 -72.70,-144.53 84.91 01/08/2019 09:04:16 -72.72,-144.52 84.88 2.70 62
41 01/08/2019 09:56:04 72.71, 22.75 95.10 01/08/2019 09:54:56 72.69, 22.74 95.09 2.78 68
42 01/08/2019 10:46:48 -72.70,-169.91 84.92 01/08/2019 10:45:38 -72.70,-169.90 84.90 0.55 70
43 01/08/2019 11:37:33 72.66, -2.52 95.04 01/08/2019 11:36:18 72.67, -2.64 95.07 3.86 75
44 01/08/2019 12:28:16 -72.60, 164.92 85.04 01/08/2019 12:27:02 -72.58, 164.52 85.02 13.52 74
45 01/08/2019 13:18:57 72.36, -27.29 94.70 01/08/2019 13:17:46 72.34, -28.63 94.77 45.43 71
46 01/08/2019 14:09:40 -72.30, 140.15 85.37 01/08/2019 14:08:29 -72.31, 138.63 85.27 51.36 71
47 01/08/2019 15:00:21 72.05, -52.07 94.36 01/08/2019 14:59:14 72.02, -54.60 94.47 87.10 67
48 01/08/2019 15:51:04 -71.99, 115.36 85.71 01/08/2019 15:49:57 -71.99, 112.66 85.57 92.76 67




NCC Satellite Simultaneous Nadir Overpasses (SNOs) Prediction Service
